{"data":{"norad_id":53857,"epoch":"2026-09-19T22:08:51.050112Z","epoch_age_seconds":134848,"freshness":"FRESH","line1":"1 53857U 22114AR  26262.92281308  .00001217  00000+0  50927-4 0  9996","line2":"2 53857  53.1580 126.8348 0000432  41.9040 318.1994 15.31732221222504","mean_motion":15.31732221,"eccentricity":4.32e-5,"inclination_deg":53.158,"raan_deg":126.8348,"arg_perigee_deg":41.904,"mean_anomaly_deg":318.1994,"bstar":5.0927e-5,"rev_number":22250,"period_min":94.011210331522,"perigee_km":470.34808044807,"apogee_km":470.93981512195,"semimajor_km":6848.780947785,"source":"CELESTRAK","updated_at":"2026-09-21T09:00:33.024683Z"}}